Location: Waco, TX
(31.5480°N, 97.1670°W)
Time: 01:19:34
(UTC-05:00)

ISS - Pass Details

Date: 23 May 2018
Orbit: 402 x 407 km, 51.6° (Epoch: 26 May)

Event Time Altitude Azimuth Distance (km) Brightness Sun altitude
Rises 04:35:55 0° 319° (NW) 2,313 0.0 -20.7°
Reaches altitude 10° 04:38:02 10° 324° (NW) 1,452 -1.0 -20.4°
Maximum altitude 04:41:14 54° 43° (NE) 493 -3.1 -19.9°
Drops below altitude 10° 04:44:24 10° 122° (ESE) 1,446 -0.8 -19.3°
Sets 04:46:30 0° 127° (SE) 2,302 0.2 -19.0°
